Torna al catalogo

INTELSAT 33E DEB

AttivoMEO
NORAD 62005·DEBRIS· XX

Lanciato Aug 24, 2016 da Guiana Space Centre

Loading…

Prossimi Passaggi (prossime 24 ore)

TLE

AggiornatoSource: Space-Track

Epoca: Sep 13, 2026, 06:06 UTC

1 62005U 16053X   26256.25453337 -.00000100  00000-0  00000+0 0  9992
2 62005   1.9427  93.5062 0272334 252.7838 104.9310  1.04572962  7235

Traccia INTELSAT 33E DEB in tempo reale con AllMySat

Download on the App Store